Location: Camerons Lookout
(40.9833°S, 175.9333°E)
Time: 06:45:17
(UTC+00:00)

Cosmos 1300 Rocket - Pass Details

Date: 14 January 2026
Orbit: 596 x 618 km, 82.5° (Epoch: 17 February)

Event Time Altitude Azimuth Distance (km) Brightness Sun altitude
Exits shadow 10:04:15 27° 337° (NNW) 1,202 4.7 -19.7°
Maximum altitude 10:06:34 67° 261° (W) 679 3.8 -19.9°
Drops below altitude 10° 10:10:59 10° 178° (S) 2,000 6.9 -20.4°
Sets 10:13:14 0° 175° (S) 2,909 7.8 -20.6°
